Weather History for Lancaster, OH

Change the Weather History Date:

Tuesday, June 25, 2013

  Actual Average Record
Temperature  
Mean Temperature 78 °F -  
Max Temperature 89 °F 81 °F 95 °F (1966)
Min Temperature 69 °F 58 °F 39 °F (1972)
Cooling Degree Days 14    
Growing Degree Days 28 (Base 50)    
Moisture  
Dew Point 69 °F    
Average Humidity 75    
Maximum Humidity 93    
Minimum Humidity 59    
Precipitation  
Precipitation 0.00 in - - ()
Sea Level Pressure  
Sea Level Pressure 30.00 in    
Wind  
Wind Speed 5 mph (SW)    
Max Wind Speed 14 mph    
Max Gust Speed 22 mph    
Visibility 8 miles    
Events      
Averages and records for this station are not official NWS values.
T = Trace of Precipitation, MM = Missing Value Source: NWS Daily Summary

Daily Weather History Graph

Daily Weather History Graph

Search for Another Location

Airport:

Trip Planner

Search our weather history database for the weather conditions in past years. The results will help you decide how hot, cold, wet, or windy it might be!

Date:

Astronomy

Jun. 25, 2013 Rise Set
Actual Time 6:03 AM EDT 9:02 PM EDT
Civil Twilight 5:31 AM EDT 9:35 PM EDT
Nautical Twilight 4:49 AM EDT 10:16 PM EDT
Astronomical Twilight 4:01 AM EDT 11:04 PM EDT
Moon 10:47 PM EDT (6/25) 8:42 AM EDT (6/25)
Length of Visible Light 16h 04m
Length of Day
14h 58m
Waning Gibbous, 93% of the Moon is Illuminated
Jun 25
Waning Gibbous
Jun 30
Last Quarter
Jul 8
New
Jul 15
First Quarter
Jul 22
Full

Hourly Weather History & Observations

Time (EDT) Temp. Heat Index Dew Point Humidity Pressure Visibility Wind Dir Wind Speed Gust Speed Precip Events Conditions
12:53 AM 71.1 °F - 66.0 °F 84% 30.07 in 9.0 mi Calm Calm - N/A   Clear
1:53 AM 71.1 °F - 64.9 °F 81% 30.04 in 10.0 mi Calm Calm - N/A   Clear
2:53 AM 70.0 °F - 64.0 °F 81% 30.02 in 10.0 mi South 4.6 mph - N/A   Clear
3:53 AM 70.0 °F - 63.0 °F 78% 30.01 in 10.0 mi SW 5.8 mph - N/A   Clear
4:53 AM 69.1 °F - 64.0 °F 84% 30.01 in 10.0 mi Variable 3.5 mph - N/A   Clear
5:53 AM 69.1 °F - 64.9 °F 87% 30.04 in 9.0 mi WNW 3.5 mph - N/A   Mostly Cloudy
6:11 AM 69.8 °F - 66.2 °F 88% 30.06 in 7.0 mi West 4.6 mph - N/A   Overcast
6:49 AM 69.8 °F - 66.2 °F 88% 30.07 in 2.5 mi WSW 3.5 mph - N/A   Mostly Cloudy
6:53 AM 69.1 °F - 66.9 °F 93% 30.05 in 2.5 mi WSW 3.5 mph - N/A   Mostly Cloudy
6:58 AM 69.8 °F - 66.2 °F 88% 30.07 in 3.0 mi SW 3.5 mph - N/A   Scattered Clouds
7:53 AM 71.1 °F - 66.9 °F 87% 30.06 in 4.0 mi WSW 5.8 mph - N/A   Partly Cloudy
8:53 AM 73.0 °F - 68.0 °F 84% 30.06 in 6.0 mi WSW 5.8 mph - N/A   Haze
9:53 AM 75.9 °F - 68.0 °F 76% 30.06 in 9.0 mi West 9.2 mph - N/A   Clear
10:53 AM 79.0 °F - 69.1 °F 72% 30.04 in 8.0 mi West 8.1 mph - N/A   Clear
11:53 AM 81.0 °F 84.9 °F 71.1 °F 72% 30.04 in 9.0 mi WSW 5.8 mph - N/A   Clear
12:53 PM 84.0 °F 89.6 °F 72.0 °F 67% 30.03 in 10.0 mi WSW 8.1 mph - N/A   Partly Cloudy
1:53 PM 86.0 °F 93.0 °F 73.0 °F 65% 30.00 in 9.0 mi SW 8.1 mph - N/A   Partly Cloudy
2:53 PM 88.0 °F 95.6 °F 73.0 °F 61% 29.98 in 10.0 mi SW 11.5 mph - N/A   Partly Cloudy
3:53 PM 87.1 °F 93.6 °F 72.0 °F 61% 29.96 in 9.0 mi SW 10.4 mph - N/A   Mostly Cloudy
4:53 PM 88.0 °F 94.7 °F 72.0 °F 59% 29.93 in 9.0 mi SW 13.8 mph 19.6 mph N/A   Partly Cloudy
5:53 PM 87.1 °F 92.8 °F 71.1 °F 59% 29.89 in 8.0 mi SSW 11.5 mph 21.9 mph N/A   Clear
6:53 PM 86.0 °F 90.7 °F 70.0 °F 59% 29.89 in 8.0 mi SW 13.8 mph 17.3 mph N/A   Clear
7:53 PM 84.9 °F 89.4 °F 70.0 °F 61% 29.90 in 9.0 mi SSW 8.1 mph - N/A   Clear
8:53 PM 82.9 °F 87.0 °F 70.0 °F 65% 29.90 in 10.0 mi SSW 6.9 mph - N/A   Clear
9:53 PM 81.0 °F 84.4 °F 70.0 °F 69% 29.90 in 10.0 mi SSW 5.8 mph - N/A   Clear
10:53 PM 79.0 °F - 71.1 °F 77% 29.91 in 10.0 mi SW 4.6 mph - N/A   Clear
11:53 PM 78.1 °F - 70.0 °F 76% 29.90 in 9.0 mi South 3.5 mph - N/A   Mostly Cloudy